User: anonymous   Login
Location: Mt. Cuba Astronomical Observatory
(39.8100°N, 75.6300°W)
Time: 16:39:43
(UTC-04:00)
Language:

Cosmos 2058 - Orbit

View from above orbital plane
View from above orbital plane
View from above satellite
View from above satellite

Ground track
Ground track

The orbit data is extracted from the following two-line orbital elements,

1 20465U 90010A   17145.90103215 +.00000331 +00000-0 +26057-4 0  9997
2 20465 082.4898 269.2775 0015897 015.7907 344.3808 14.97503185460895
Epoch (UTC): 25 May 2017 21:37:29
Eccentricity: 0.0015897
inclination: 82.4898°
perigee height: 563 km
apogee height: 585 km
right ascension of ascending node: 269.2775°
argument of perigee: 15.7907°
revolutions per day: 14.97503185
mean anomaly at epoch: 344.3808°
orbit number at epoch: 46089

The dashed part of the orbit path shows where the satellite is in the earth's shadow,  

DLR